Date_and_time,latitude,longitude,wind_speed,RelWindDirFrom,WindDirFrom,air_pressure,air_temperature,relative_humidity,Temp,platform_speed_wrt_ground,air_pressure_at_mean_sea_level,platform_orientation
2019-03-31 23:50,50.6304433333333,-96.9807633333333,4.2,9.2,326,995.00,2.4,54,2.03,0.0,1022.94,125.3
2019-04-01 00:00,50.630445,-96.98078,7.6,11.7,347,994.97,2.3,60,2.04,0.0,1022.91,304.8
2019-04-01 00:10,50.63044,-96.9807616666667,9.9,14.3,27,994.88,1.1,77,2.04,0.0,1022.87,304.8
2019-04-01 00:20,50.6304416666667,-96.9807566666667,11.1,12.5,32,994.85,0.7,87,2.04,0.0,1022.84,304.8
2019-04-01 00:30,50.630445,-96.980765,10.0,13.1,29,994.91,0.7,96,2.04,0.0,1022.91,304.8
2019-04-01 00:40,50.630445,-96.9807633333333,8.8,10.8,1,995.00,0.4,97,2.04,0.0,1023.01,304.8
2019-04-01 00:50,50.6304466666667,-96.980765,6.6,10.8,333,995.07,0.7,89,2.04,0.0,1023.06,304.8
2019-04-01 01:00,50.630445,-96.9807633333333,8.0,11.7,333,994.97,0.8,84,2.05,0.0,1022.92,270.0
2019-04-01 01:10,50.630445,-96.980765,7.6,11.0,341,995.02,0.7,85,2.05,0.0,1022.95,270.0
2019-04-01 01:20,50.630445,-96.9807666666667,7.1,8.6,360,995.04,0.4,93,2.05,0.0,1022.98,270.0
2019-04-01 01:30,50.63045,-96.98078,8.0,10.1,3,995.08,0.1,99,2.06,0.0,1023.05,270.0
2019-04-01 01:40,50.630445,-96.9807716666667,8.7,10.3,8,995.18,-0.3,99,2.06,0.0,1023.14,270.0
2019-04-01 01:50,50.6304433333333,-96.9807666666667,7.2,8.9,6,995.27,-0.7,99,2.05,0.0,1023.26,270.0
2019-04-01 02:00,50.630445,-96.980765,6.7,8.3,5,995.35,-0.8,99,2.05,0.0,1023.41,270.0
2019-04-01 02:10,50.6304516666667,-96.9807733333333,6.8,8.1,8,995.43,-1.0,99,2.04,0.0,1023.52,270.0
2019-04-01 02:20,50.6304416666667,-96.9807766666667,6.1,7.0,8,995.51,-1.3,99,2.03,0.0,1023.62,270.0
2019-04-01 02:30,50.6304483333333,-96.9807783333333,6.0,7.5,3,995.57,-1.4,99,2.02,0.0,1023.70,270.0
2019-04-01 02:40,50.6304433333333,-96.9807616666667,4.7,6.4,10,995.53,-1.3,99,2.02,0.0,1023.65,270.0
2019-04-01 02:50,50.6304433333333,-96.9807633333333,3.9,5.0,8,995.56,-1.4,99,2.02,0.0,1023.67,270.0
2019-04-01 03:00,50.6304516666667,-96.980765,3.5,4.1,15,995.63,-1.5,99,2.02,0.0,1023.75,42.8
2019-04-01 03:10,50.630435,-96.9807783333333,3.9,6.0,14,995.66,-1.6,99,2.02,0.0,1023.80,42.8
2019-04-01 03:20,50.6304533333333,-96.9807666666667,5.8,8.1,7,995.71,-1.7,99,2.03,0.0,1023.88,42.8
2019-04-01 03:30,50.6304416666667,-96.980765,5.0,6.4,12,995.67,-1.8,98,2.03,0.0,1023.86,42.8
2019-04-01 03:40,50.6304533333333,-96.9807683333333,4.7,5.6,11,995.66,-1.9,96,2.03,0.0,1023.88,42.8
2019-04-01 03:50,50.630455,-96.9807716666667,5.6,6.5,25,995.52,-1.8,94,2.02,0.0,1023.74,42.8
2019-04-01 04:00,50.6304133333333,-96.98075,6.7,8.1,26,995.48,-1.9,95,2.02,0.0,1023.71,147.5
2019-04-01 04:10,50.63044,-96.98077,6.4,7.7,33,995.50,-1.9,92,2.03,0.0,1023.74,147.5
2019-04-01 04:20,50.630445,-96.9807616666667,4.8,6.2,35,995.50,-2.0,97,2.02,0.0,1023.76,147.5
2019-04-01 04:30,50.630445,-96.980765,3.6,4.7,27,995.52,-2.2,98,2.00,0.0,1023.79,147.5
2019-04-01 04:40,50.630445,-96.9807666666667,3.5,4.9,22,995.50,-2.2,97,2.00,0.0,1023.77,147.5
2019-04-01 04:50,50.6304466666667,-96.9807683333333,4.8,5.8,11,995.46,-2.2,97,2.01,0.0,1023.73,147.5
2019-04-01 05:00,50.630445,-96.9807683333333,4.3,5.1,16,995.37,-2.1,94,1.99,0.0,1023.64,0.0
2019-04-01 05:10,50.63044,-96.9807766666667,3.1,4.2,4,995.36,-2.1,92,1.98,0.0,1023.63,0.0
2019-04-01 05:20,50.63044,-96.9807816666667,2.6,3.6,3,995.32,-2.0,88,1.98,0.0,1023.60,0.0
2019-04-01 05:30,50.6304516666667,-96.98078,0.8,2.0,17,995.23,-2.0,86,1.98,0.0,1023.50,0.0
2019-04-01 05:40,50.63045,-96.9807716666667,1.5,2.4,87,995.03,-1.8,82,1.98,0.0,1023.29,0.0
2019-04-01 05:50,50.6304483333333,-96.9807716666667,1.6,2.4,99,994.91,-1.8,84,1.97,0.0,1023.17,0.0
2019-04-01 06:00,50.6304533333333,-96.9807816666667,0.6,2.3,141,994.97,-2.2,86,1.96,0.0,1023.25,270.0
2019-04-01 06:10,50.6304466666667,-96.980775,0.5,1.8,185,994.97,-2.3,85,1.97,0.0,1023.26,270.0
2019-04-01 06:20,50.6304466666667,-96.9807733333333,0.5,1.9,19,994.89,-2.0,83,1.96,0.0,1023.17,270.0
2019-04-01 06:30,50.63045,-96.9807733333333,2.5,4.2,8,994.82,-2.1,82,1.94,0.0,1023.11,270.0
2019-04-01 06:40,50.6304483333333,-96.9807866666667,3.1,4.0,1,994.79,-2.2,95,1.95,0.0,1023.08,270.0
2019-04-01 06:50,50.6304483333333,-96.9807816666667,2.5,3.7,14,994.65,-2.3,92,1.95,0.0,1022.93,270.0
2019-04-01 07:00,50.63045,-96.9807783333333,1.1,2.2,30,994.49,-2.2,89,1.96,0.0,1022.77,330.4
2019-04-01 07:10,50.63045,-96.9807766666667,0.0,0.3,0,994.41,-2.3,86,1.96,0.0,1022.68,330.4
2019-04-01 07:20,50.63045,-96.980775,0.0,0.0,0,994.26,-2.3,84,1.93,0.0,1022.53,330.4
2019-04-01 07:30,50.6304483333333,-96.980775,1.3,2.4,211,994.17,-2.4,83,1.89,0.0,1022.44,330.4
2019-04-01 07:40,50.6304483333333,-96.980775,4.2,5.3,197,994.17,-2.6,87,1.87,0.0,1022.44,330.4
2019-04-01 07:50,50.630425,-96.9807966666667,3.9,5.7,214,994.13,-2.6,86,1.87,0.0,1022.43,330.4
2019-04-01 08:00,50.6304383333333,-96.98076,4.3,5.7,223,994.17,-2.6,86,1.86,0.0,1022.46,90.0
2019-04-01 08:10,50.6304483333333,-96.9807716666667,4.6,6.2,217,994.08,-2.6,88,1.83,0.0,1022.36,90.0
2019-04-01 08:20,50.6304433333333,-96.9807716666667,5.5,7.5,224,994.06,-2.5,88,1.84,0.0,1022.34,90.0
2019-04-01 08:30,50.6304383333333,-96.980765,5.0,7.1,224,993.98,-2.5,87,1.86,0.0,1022.26,90.0
2019-04-01 08:40,50.6304383333333,-96.9807633333333,4.9,6.4,231,993.94,-2.4,86,1.87,0.0,1022.22,90.0
2019-04-01 08:50,50.6304366666667,-96.9807633333333,5.3,7.8,223,993.87,-2.4,87,1.87,0.0,1022.14,90.0
2019-04-01 09:00,50.6304366666667,-96.9807633333333,5.6,6.6,218,993.79,-2.4,88,1.85,0.0,1022.07,138.8
2019-04-01 09:10,50.6304383333333,-96.980765,5.5,7.0,213,993.65,-2.5,89,1.84,0.0,1021.92,138.8
2019-04-01 09:20,50.63044,-96.9807666666667,4.5,6.0,215,993.49,-2.4,89,1.85,0.0,1021.77,138.8
2019-04-01 09:30,50.6304633333333,-96.9807766666667,5.1,6.2,211,993.41,-2.5,89,1.86,0.0,1021.70,138.8
2019-04-01 09:40,50.6304516666667,-96.9807666666667,5.7,6.9,206,993.24,-2.5,88,1.85,0.0,1021.52,138.8
2019-04-01 09:50,50.6304483333333,-96.98077,5.8,7.2,208,993.14,-2.5,88,1.86,0.0,1021.42,138.8
2019-04-01 10:00,50.630445,-96.9807716666667,5.4,7.1,207,993.01,-2.5,87,1.84,0.0,1021.29,167.4
2019-04-01 10:10,50.630445,-96.9807716666667,5.3,6.4,203,992.83,-2.5,87,1.86,0.0,1021.09,167.4
2019-04-01 10:20,50.630445,-96.9807716666667,6.1,7.5,205,992.76,-2.5,88,1.88,0.0,1021.02,167.4
2019-04-01 10:30,50.630445,-96.9807716666667,6.1,7.9,206,992.64,-2.5,87,1.89,0.0,1020.90,167.4
2019-04-01 10:40,50.630445,-96.9807716666667,6.4,8.3,207,992.54,-2.5,87,1.89,0.0,1020.79,167.4
2019-04-01 10:50,50.630445,-96.98077,6.4,8.0,206,992.34,-2.5,88,1.91,0.0,1020.59,167.4
2019-04-01 11:00,50.63044,-96.9807433333333,6.2,7.6,205,992.18,-2.4,87,1.91,0.0,1020.42,90.0
2019-04-01 11:10,50.6304466666667,-96.980755,6.4,8.3,204,992.02,-2.4,86,1.90,0.0,1020.26,90.0
2019-04-01 11:20,50.6304483333333,-96.98076,6.6,8.1,202,991.82,-2.4,84,1.90,0.0,1020.05,90.0
2019-04-01 11:30,50.63045,-96.9807583333333,6.9,9.4,205,991.66,-2.3,82,1.90,0.0,1019.88,90.0
2019-04-01 11:40,50.6304516666667,-96.9807583333333,6.7,8.6,205,991.51,-2.3,81,1.90,0.0,1019.73,90.0
2019-04-01 11:50,50.6304533333333,-96.9807566666667,7.5,10.0,205,991.40,-2.3,79,1.91,0.0,1019.61,90.0
2019-04-01 12:00,50.6304516666667,-96.9807583333333,7.1,9.4,206,991.31,-2.3,77,1.91,0.0,1019.52,360.0
2019-04-01 12:10,50.6304433333333,-96.980795,7.8,9.9,204,991.19,-2.3,76,1.91,0.0,1019.39,360.0
2019-04-01 12:20,50.630445,-96.9807683333333,7.7,9.9,202,991.05,-2.3,76,1.91,0.0,1019.26,360.0
2019-04-01 12:30,50.6304483333333,-96.980765,6.9,9.5,204,990.94,-2.2,76,1.91,0.0,1019.14,360.0
2019-04-01 12:40,50.6304466666667,-96.9807633333333,6.8,8.6,200,990.84,-2.2,77,1.90,0.0,1019.04,360.0
2019-04-01 12:50,50.6304483333333,-96.9807633333333,7.6,9.7,199,990.75,-2.2,77,1.88,0.0,1018.93,360.0
2019-04-01 13:00,50.6304483333333,-96.9807633333333,8.0,10.2,197,990.64,-2.1,78,1.87,0.0,1018.82,12.6
2019-04-01 13:10,50.6304483333333,-96.9807633333333,8.4,11.2,195,990.58,-2.1,80,1.87,0.0,1018.76,12.6
2019-04-01 13:20,50.6304483333333,-96.9807633333333,8.9,11.4,196,990.51,-2.0,80,1.87,0.0,1018.68,12.6
2019-04-01 13:30,50.6304466666667,-96.9807616666667,8.7,11.4,194,990.45,-2.0,82,1.88,0.0,1018.61,12.6
2019-04-01 13:40,50.6304483333333,-96.9807633333333,8.9,11.3,194,990.42,-1.8,83,1.87,0.0,1018.57,12.6
2019-04-01 13:50,50.6304466666667,-96.9807633333333,8.8,11.2,193,990.35,-1.8,84,1.88,0.0,1018.49,12.6
2019-04-01 14:00,50.6304466666667,-96.9807633333333,8.5,11.2,188,990.15,-1.7,86,1.88,0.0,1018.28,291.5
2019-04-01 14:10,50.6304466666667,-96.980765,9.1,11.6,190,989.92,-1.6,85,1.88,0.0,1018.05,291.5
2019-04-01 14:20,50.6304466666667,-96.980765,8.6,12.2,190,989.77,-1.4,86,1.88,0.0,1017.88,291.5
2019-04-01 14:30,50.6304466666667,-96.980765,8.5,12.8,188,989.65,-1.2,85,1.87,0.0,1017.74,291.5
2019-04-01 14:40,50.6304466666667,-96.980765,10.7,13.6,186,989.38,-1.0,82,1.87,0.0,1017.45,291.5
2019-04-01 14:50,50.6304466666667,-96.9807666666667,11.4,16.6,185,989.16,-0.8,79,1.87,0.0,1017.21,291.5
2019-04-01 15:00,50.6304466666667,-96.9807666666667,11.4,13.9,181,989.00,-0.6,75,1.87,0.0,1017.03,192.6
2019-04-01 15:10,50.6304366666667,-96.9807733333333,9.6,13.3,189,988.95,-0.5,77,1.88,0.0,1016.97,192.6
2019-04-01 15:20,50.6304383333333,-96.9807733333333,8.6,11.8,198,988.85,-0.3,75,1.88,0.0,1016.86,192.6
2019-04-01 15:30,50.63044,-96.9807733333333,8.7,11.9,190,988.67,-0.3,77,1.88,0.0,1016.67,192.6
2019-04-01 15:40,50.6304416666667,-96.9807733333333,10.1,15.2,191,988.49,-0.1,74,1.89,0.0,1016.47,192.6
2019-04-01 15:50,50.6304416666667,-96.9807733333333,9.5,12.2,187,988.32,-0.1,75,1.89,0.0,1016.28,192.6
2019-04-01 16:00,50.6304416666667,-96.9807733333333,9.6,15.7,197,988.09,0.5,71,1.89,0.0,1016.01,192.6
2019-04-01 16:10,50.6304483333333,-96.9807366666667,8.0,12.3,198,988.00,0.9,70,1.90,0.0,1015.90,192.6
2019-04-01 16:20,50.630445,-96.9807533333333,9.2,12.8,183,987.78,0.8,72,1.92,0.0,1015.66,192.6
2019-04-01 16:30,50.630445,-96.98076,9.7,12.4,184,987.55,1.1,68,1.92,0.0,1015.40,192.6
2019-04-01 16:40,50.630445,-96.9807616666667,7.4,10.5,192,987.44,1.0,68,1.94,0.0,1015.28,192.6
2019-04-01 16:50,50.63043,-96.9807516666667,9.1,12.3,181,987.24,1.0,66,1.94,0.0,1015.06,192.6
2019-04-01 17:00,50.6304333333333,-96.98076,7.8,12.1,202,987.15,1.3,60,1.94,0.0,1014.95,156.5
2019-04-01 17:10,50.6304416666667,-96.9807633333333,5.8,12.5,210,986.96,1.8,56,1.94,0.0,1014.72,156.5
2019-04-01 17:20,50.6304416666667,-96.9807683333333,8.8,12.9,240,986.80,2.1,49,1.94,0.0,1014.54,156.5
2019-04-01 17:30,50.6304416666667,-96.980765,8.5,13.6,222,986.57,2.4,49,1.94,0.0,1014.27,156.5
2019-04-01 17:40,50.6304416666667,-96.9807666666667,8.4,12.7,226,986.40,2.4,49,1.95,0.0,1014.10,156.5
2019-04-01 17:50,50.6304416666667,-96.9807666666667,8.9,13.4,242,986.31,2.6,48,1.95,0.0,1013.97,156.5
2019-04-01 18:00,50.6304416666667,-96.980765,6.0,12.6,242,986.07,2.7,47,1.95,0.0,1013.70,360.0
2019-04-01 18:10,50.6304416666667,-96.9807666666667,9.7,14.4,231,985.88,2.9,45,1.95,0.0,1013.50,360.0
2019-04-01 18:20,50.6304433333333,-96.9807683333333,7.9,12.7,225,985.71,3.0,45,1.96,0.0,1013.30,360.0
2019-04-01 18:30,50.6304433333333,-96.98077,7.3,12.9,248,985.56,3.1,44,1.97,0.0,1013.15,360.0
2019-04-01 18:40,50.630445,-96.9807816666667,9.1,13.2,231,985.41,2.9,44,1.97,0.0,1013.00,360.0
2019-04-01 18:50,50.6304516666667,-96.9807766666667,8.7,13.5,227,985.24,3.0,43,1.96,0.0,1012.81,360.0
2019-04-01 19:00,50.630445,-96.9807716666667,7.4,11.7,233,985.08,3.1,43,1.96,0.0,1012.62,0.0
2019-04-01 19:10,50.63045,-96.9807716666667,7.9,10.9,219,984.86,3.2,43,1.97,0.0,1012.36,0.0
2019-04-01 19:20,50.6304483333333,-96.98077,9.1,13.0,230,984.70,3.3,42,1.97,0.0,1012.18,0.0
2019-04-01 19:30,50.6304466666667,-96.9807666666667,9.4,14.7,230,984.55,3.4,40,1.98,0.0,1012.03,0.0
2019-04-01 19:40,50.6304483333333,-96.9807666666667,11.3,16.5,223,984.40,3.5,40,1.98,0.0,1011.86,0.0
2019-04-01 19:50,50.630445,-96.9807716666667,10.7,15.5,223,984.15,3.6,41,1.98,0.0,1011.59,0.0
2019-04-01 20:00,50.6304466666667,-96.980765,11.0,16.3,215,983.89,3.6,40,1.99,0.0,1011.32,336.5
2019-04-01 20:10,50.630445,-96.980765,12.8,18.5,223,983.77,3.8,39,2.01,0.0,1011.17,336.5
2019-04-01 20:20,50.6304433333333,-96.980765,11.2,15.9,218,983.47,4.0,39,2.01,0.0,1010.85,336.5
2019-04-01 20:30,50.6304466666667,-96.9807766666667,10.4,16.5,224,983.35,4.2,39,2.01,0.0,1010.73,336.5
2019-04-01 20:40,50.63045,-96.9807716666667,11.4,16.0,234,983.25,4.4,40,2.01,0.0,1010.60,336.5
2019-04-01 20:50,50.6304466666667,-96.9807716666667,11.4,17.0,232,983.12,4.6,41,2.02,0.0,1010.45,336.5
2019-04-01 21:00,50.6304416666667,-96.9807683333333,11.1,17.7,226,982.95,4.9,41,2.03,0.0,1010.27,0.0
2019-04-01 21:10,50.6304466666667,-96.980765,11.7,15.4,234,982.78,5.1,40,2.03,0.0,1010.07,0.0
2019-04-01 21:20,50.6304533333333,-96.9807533333333,11.7,17.7,222,982.56,5.3,41,2.03,0.0,1009.84,0.0
2019-04-01 21:30,50.6304466666667,-96.9807583333333,10.8,16.0,229,982.38,5.6,40,2.04,0.0,1009.63,0.0
2019-04-01 21:40,50.6304466666667,-96.9807633333333,11.5,15.8,228,982.17,5.3,40,2.05,0.0,1009.42,0.0
2019-04-01 21:50,50.630445,-96.9807616666667,13.7,19.2,229,982.09,5.8,39,2.06,0.0,1009.32,0.0
2019-04-01 22:00,50.6304433333333,-96.9807616666667,12.0,18.2,237,982.07,5.6,41,2.06,0.0,1009.30,90.0
2019-04-01 22:10,50.6304416666667,-96.98076,9.7,15.2,219,981.89,5.3,43,2.07,0.0,1009.11,90.0
2019-04-01 22:20,50.6304416666667,-96.9807616666667,9.8,19.6,238,981.80,5.5,42,2.07,0.0,1009.00,90.0
2019-04-01 22:30,50.6304416666667,-96.98076,13.0,18.2,239,981.78,5.7,40,2.08,0.0,1008.96,90.0
2019-04-01 22:40,50.6304416666667,-96.9807616666667,12.8,19.0,239,981.75,5.5,41,2.10,0.0,1008.93,90.0
2019-04-01 22:50,50.6304416666667,-96.98076,9.2,15.1,248,981.68,5.4,43,2.11,0.0,1008.85,90.0
2019-04-01 23:00,50.6304416666667,-96.98076,8.6,17.1,255,981.55,5.4,43,2.11,0.0,1008.71,167.4
2019-04-01 23:10,50.6304416666667,-96.98076,7.9,12.1,262,981.44,5.4,43,2.11,0.0,1008.59,167.4
2019-04-01 23:20,50.6304433333333,-96.98076,8.4,13.3,264,981.33,5.4,43,2.12,0.0,1008.46,167.4
2019-04-01 23:30,50.6304433333333,-96.98076,9.7,14.2,244,981.37,5.4,44,2.15,0.0,1008.51,167.4
